TimeEST,TemperatureF,Dew PointF,Humidity,Sea Level PressureIn,VisibilityMPH,Wind Direction,Wind SpeedMPH,Gust SpeedMPH,PrecipitationIn,Events,Conditions,WindDirDegrees,DateUTC
12:15 AM,32.0,32.0,100,30.33,7.0,Calm,Calm,-,N/A,,Clear,0,2013-12-19 05:15:00
12:35 AM,32.0,32.0,100,30.33,5.0,Calm,Calm,-,N/A,,Clear,0,2013-12-19 05:35:00
12:55 AM,32.0,32.0,100,30.32,7.0,Calm,Calm,-,N/A,,Clear,0,2013-12-19 05:55:00
1:15 AM,32.0,32.0,100,30.32,7.0,Calm,Calm,-,N/A,,Clear,0,2013-12-19 06:15:00
1:35 AM,32.0,32.0,100,30.32,7.0,Calm,Calm,-,N/A,,Clear,0,2013-12-19 06:35:00
1:55 AM,32.0,32.0,100,30.32,7.0,Calm,Calm,-,N/A,,Clear,0,2013-12-19 06:55:00
2:15 AM,32.0,32.0,100,30.33,7.0,Calm,Calm,-,N/A,,Clear,0,2013-12-19 07:15:00
2:35 AM,32.0,32.0,100,30.33,7.0,Calm,Calm,-,N/A,,Clear,0,2013-12-19 07:35:00
2:55 AM,32.0,32.0,100,30.34,7.0,Calm,Calm,-,N/A,,Clear,0,2013-12-19 07:55:00
3:15 AM,32.0,32.0,100,30.34,7.0,Calm,Calm,-,N/A,,Clear,0,2013-12-19 08:15:00
3:35 AM,32.0,32.0,100,30.34,7.0,Calm,Calm,-,N/A,,Clear,0,2013-12-19 08:35:00
3:55 AM,32.0,32.0,100,30.34,7.0,Calm,Calm,-,N/A,,Clear,0,2013-12-19 08:55:00
4:15 AM,32.0,32.0,100,30.34,7.0,Calm,Calm,-,N/A,,Clear,0,2013-12-19 09:15:00
4:35 AM,32.0,32.0,100,30.34,7.0,Calm,Calm,-,N/A,,Clear,0,2013-12-19 09:35:00
4:55 AM,32.0,32.0,100,30.34,7.0,Calm,Calm,-,N/A,,Clear,0,2013-12-19 09:55:00
5:15 AM,32.0,32.0,100,30.34,7.0,Calm,Calm,-,N/A,,Clear,0,2013-12-19 10:15:00
5:35 AM,32.0,32.0,100,30.34,7.0,Calm,Calm,-,N/A,,Clear,0,2013-12-19 10:35:00
5:55 AM,32.0,32.0,100,30.34,7.0,Calm,Calm,-,N/A,,Clear,0,2013-12-19 10:55:00
6:15 AM,32.0,32.0,100,30.34,7.0,Calm,Calm,-,N/A,,Clear,0,2013-12-19 11:15:00
6:35 AM,32.0,32.0,100,30.34,7.0,Calm,Calm,-,N/A,,Clear,0,2013-12-19 11:35:00
6:55 AM,32.0,32.0,100,30.35,5.0,Calm,Calm,-,N/A,,Clear,0,2013-12-19 11:55:00
7:15 AM,30.2,30.2,100,30.35,7.0,Calm,Calm,-,N/A,,Clear,0,2013-12-19 12:15:00
7:35 AM,32.0,32.0,100,30.35,7.0,Calm,Calm,-,N/A,,Clear,0,2013-12-19 12:35:00
7:55 AM,32.0,32.0,100,30.35,7.0,Calm,Calm,-,N/A,,Clear,0,2013-12-19 12:55:00
8:15 AM,32.0,32.0,100,30.36,7.0,Calm,Calm,-,N/A,,Clear,0,2013-12-19 13:15:00
8:35 AM,33.8,33.8,100,30.36,7.0,Calm,Calm,-,N/A,,Clear,0,2013-12-19 13:35:00
9:15 AM,42.8,41.0,93,30.37,7.0,Calm,Calm,-,N/A,,Clear,0,2013-12-19 14:15:00
9:35 AM,46.4,41.0,81,30.37,7.0,Calm,Calm,-,N/A,,Clear,0,2013-12-19 14:35:00
10:15 AM,51.8,35.6,54,30.37,7.0,Calm,Calm,-,N/A,,Clear,0,2013-12-19 15:15:00
10:35 AM,55.4,33.8,44,30.37,10.0,Calm,Calm,-,N/A,,Clear,0,2013-12-19 15:35:00
10:55 AM,57.2,32.0,38,30.37,7.0,Calm,Calm,-,N/A,,Clear,0,2013-12-19 15:55:00
11:15 AM,59.0,35.6,42,30.37,10.0,Calm,Calm,-,N/A,,Clear,0,2013-12-19 16:15:00
11:35 AM,60.8,39.2,45,30.37,10.0,SE,4.6,-,N/A,,Clear,140,2013-12-19 16:35:00
11:55 AM,60.8,41.0,48,30.37,7.0,SSE,4.6,-,N/A,,Clear,150,2013-12-19 16:55:00
12:15 PM,60.8,42.8,52,30.36,10.0,SSW,4.6,-,N/A,,Clear,200,2013-12-19 17:15:00
12:35 PM,62.6,42.8,48,30.34,10.0,SW,6.9,-,N/A,,Clear,220,2013-12-19 17:35:00
12:55 PM,64.4,42.8,45,30.33,7.0,South,4.6,-,N/A,,Clear,190,2013-12-19 17:55:00
1:15 PM,64.4,44.6,49,30.31,7.0,SE,4.6,-,N/A,,Clear,130,2013-12-19 18:15:00
1:35 PM,66.2,44.6,46,30.31,10.0,South,6.9,-,N/A,,Clear,190,2013-12-19 18:35:00
1:55 PM,66.2,46.4,49,30.30,10.0,SSW,4.6,-,N/A,,Clear,210,2013-12-19 18:55:00
2:15 PM,66.2,44.6,46,30.29,10.0,South,4.6,-,N/A,,Clear,190,2013-12-19 19:15:00
2:35 PM,66.2,46.4,49,30.28,10.0,SSW,4.6,-,N/A,,Clear,200,2013-12-19 19:35:00
2:55 PM,66.2,46.4,49,30.28,10.0,South,6.9,-,N/A,,Clear,180,2013-12-19 19:55:00
3:15 PM,66.2,46.4,49,30.27,10.0,SW,3.5,-,N/A,,Clear,220,2013-12-19 20:15:00
3:35 PM,66.2,46.4,49,30.27,7.0,SSE,3.5,-,N/A,,Clear,160,2013-12-19 20:35:00
3:55 PM,66.2,46.4,49,30.27,7.0,SSW,4.6,-,N/A,,Clear,210,2013-12-19 20:55:00
4:15 PM,66.2,46.4,49,30.27,7.0,SSW,4.6,-,N/A,,Clear,200,2013-12-19 21:15:00
4:35 PM,66.2,48.2,52,30.27,10.0,South,3.5,-,N/A,,Clear,170,2013-12-19 21:35:00
4:55 PM,64.4,48.2,56,30.27,10.0,SSE,4.6,-,N/A,,Clear,160,2013-12-19 21:55:00
5:15 PM,62.6,50.0,63,30.27,10.0,Calm,Calm,-,N/A,,Clear,0,2013-12-19 22:15:00
5:35 PM,60.8,50.0,68,30.27,7.0,Calm,Calm,-,N/A,,Clear,0,2013-12-19 22:35:00
5:55 PM,59.0,50.0,72,30.28,10.0,Calm,Calm,-,N/A,,Clear,0,2013-12-19 22:55:00
6:15 PM,55.4,50.0,82,30.28,10.0,Calm,Calm,-,N/A,,Clear,0,2013-12-19 23:15:00
6:35 PM,57.2,50.0,77,30.28,10.0,Calm,Calm,-,N/A,,Clear,0,2013-12-19 23:35:00
6:55 PM,55.4,48.2,77,30.28,10.0,Calm,Calm,-,N/A,,Clear,0,2013-12-19 23:55:00
7:15 PM,51.8,48.2,88,30.29,10.0,Calm,Calm,-,N/A,,Clear,0,2013-12-20 00:15:00
7:35 PM,50.0,48.2,94,30.29,10.0,Calm,Calm,-,N/A,,Scattered Clouds,0,2013-12-20 00:35:00
7:55 PM,50.0,48.2,94,30.29,10.0,Calm,Calm,-,N/A,,Scattered Clouds,0,2013-12-20 00:55:00
8:15 PM,50.0,46.4,87,30.29,10.0,Calm,Calm,-,N/A,,Clear,0,2013-12-20 01:15:00
8:35 PM,48.2,46.4,93,30.30,7.0,Calm,Calm,-,N/A,,Clear,0,2013-12-20 01:35:00
8:55 PM,48.2,46.4,93,30.29,10.0,Calm,Calm,-,N/A,,Clear,0,2013-12-20 01:55:00
9:15 PM,48.2,46.4,93,30.29,10.0,Calm,Calm,-,N/A,,Scattered Clouds,0,2013-12-20 02:15:00
9:35 PM,46.4,44.6,93,30.29,10.0,Calm,Calm,-,N/A,,Scattered Clouds,0,2013-12-20 02:35:00
9:55 PM,46.4,44.6,93,30.29,7.0,Calm,Calm,-,N/A,,Clear,0,2013-12-20 02:55:00
10:15 PM,46.4,44.6,93,30.29,10.0,Calm,Calm,-,N/A,,Clear,0,2013-12-20 03:15:00
10:35 PM,46.4,44.6,93,30.28,10.0,Calm,Calm,-,N/A,,Clear,0,2013-12-20 03:35:00
10:55 PM,46.4,44.6,93,30.28,10.0,Calm,Calm,-,N/A,,Clear,0,2013-12-20 03:55:00
11:15 PM,48.2,46.4,93,30.27,10.0,Calm,Calm,-,N/A,,Clear,0,2013-12-20 04:15:00
11:35 PM,46.4,44.6,93,30.27,7.0,Calm,Calm,-,N/A,,Clear,0,2013-12-20 04:35:00
11:55 PM,46.4,44.6,93,30.26,10.0,Calm,Calm,-,N/A,,Clear,0,2013-12-20 04:55:00